Location: Unspecified
(0.0000°N, 0.0000°E)
Time: 17:41:25
(UTC+02:00)

H-2A R/B - Visible Passes

Search period start: 19 April 2015 00:00
Search period end: 29 April 2015 00:00
Orbit: 257 x 33483 km, 28.4° (Epoch: 18 April)

Date Brightness Start Highest point End Pass type
(mag) Time Alt. Az. Time Alt. Az. Time Alt. Az.
19 Apr 7.1 00:10:28 10° NW 08:55:15 43° SSW 09:18:29 10° ESE visible
19 Apr 6.0 19:34:10 10° N 19:42:10 20° NNE 04:23:12 10° SE visible
21 Apr 6.4 01:15:32 10° WNW 10:09:58 39° S 10:21:43 10° ESE visible
21 Apr 6.5 20:35:01 10° NNW 20:49:34 35° NE 05:33:52 10° SE visible
23 Apr 5.4 02:22:57 10° WNW 11:17:09 40° S 11:23:39 10° ESE visible
23 Apr 6.9 21:35:49 10° NW 21:59:18 51° NE 06:40:14 10° SE visible
25 Apr 4.1 03:36:49 10° WNW 12:20:35 51° SSE 12:24:22 10° E visible
25 Apr 7.2 22:36:35 10° NW 23:16:35 69° NE 07:43:56 10° ESE visible
27 Apr 3.4 05:28:27 10° W 13:21:20 71° NW 13:23:48 10° NE visible
27 Apr 7.2 23:37:32 10° NW 01:28:24 86° SW 08:45:44 10° ESE visible
